Weather History for Watertown, SD

Change the Weather History Date:

Saturday, January 19, 2013

  Actual Average Record
Temperature  
Mean Temperature 17 °F 12 °F  
Max Temperature 36 °F 22 °F 56 °F (1900)
Min Temperature -2 °F 3 °F -33 °F (1970)
Degree Days  
Heating Degree Days 48 53  
Month to date heating degree days 922 1000  
Since 1 July heating degree days 4279 4459  
Cooling Degree Days 0 0  
Month to date cooling degree days 0 0  
Year to date cooling degree days 0 0  
Moisture  
Dew Point 12 °F    
Average Humidity 81    
Maximum Humidity 92    
Minimum Humidity 69    
Precipitation  
Precipitation 0.00 in 0.02 in 0.30 in (1979)
Month to date precipitation 0.13 0.32  
Year to date precipitation 0.13 0.32  
Snow  
Snow 0.00 in - - ()
Month to date snowfall 0.1  
Since 1 July snowfall 10.8  
Snow Depth 5.00 in    
Sea Level Pressure  
Sea Level Pressure 30.06 in    
Wind  
Wind Speed 17 mph (NW)    
Max Wind Speed 38 mph    
Max Gust Speed 45 mph    
Visibility 7 miles    
Events Snow    
T = Trace of Precipitation, MM = Missing Value Source: NWS Daily Summary

Daily Weather History Graph

Daily Weather History Graph

Search for Another Location

Airport:

Trip Planner

Search our weather history database for the weather conditions in past years. The results will help you decide how hot, cold, wet, or windy it might be!

Date:

Astronomy

Jan. 19, 2013 Rise Set
Actual Time 8:00 AM CST 5:19 PM CST
Civil Twilight 7:27 AM CST 5:51 PM CST
Nautical Twilight 6:51 AM CST 6:27 PM CST
Astronomical Twilight 6:16 AM CST 7:02 PM CST
Moon 11:49 AM CST (1/19) 1:31 AM CST (1/19)
Length of Visible Light 10h 23m
Length of Day
9h 18m
First Quarter, 57% of the Moon is Illuminated
Jan 19
First Quarter
Jan 26
Full
Feb 3
Last Quarter
Feb 10
New
Feb 17
First Quarter

Hourly Weather History & Observations

Time (CST) Temp. Windchill Dew Point Humidity Pressure Visibility Wind Dir Wind Speed Gust Speed Precip Events Conditions
12:53 AM 30.0 °F 24.1 °F 26.1 °F 85% 29.77 in 10.0 mi SW 5.8 mph - N/A   Clear
1:53 AM 32.0 °F 23.6 °F 26.1 °F 79% 29.76 in 10.0 mi WSW 10.4 mph - N/A   Clear
2:53 AM 32.0 °F 22.5 °F 26.1 °F 79% 29.78 in 10.0 mi West 12.7 mph - N/A   Partly Cloudy
3:53 AM 27.0 °F 18.7 °F 24.1 °F 89% 29.78 in 10.0 mi WSW 8.1 mph - N/A   Clear
4:53 AM 27.0 °F 18.0 °F 24.1 °F 89% 29.78 in 10.0 mi West 9.2 mph - N/A   Clear
6:53 AM 30.9 °F 23.5 °F 26.1 °F 82% 29.83 in 10.0 mi WNW 8.1 mph - N/A   Partly Cloudy
8:53 AM 33.1 °F 23.0 °F 27.0 °F 78% 29.89 in 10.0 mi WNW 15.0 mph - N/A   Mostly Cloudy
10:53 AM 35.1 °F 24.8 °F 28.9 °F 78% 29.94 in 10.0 mi WNW 17.3 mph 25.3 mph N/A   Partly Cloudy
11:53 AM 35.1 °F 24.1 °F 28.9 °F 78% 29.96 in 10.0 mi WNW 19.6 mph 27.6 mph N/A   Overcast
12:05 PM 35.6 °F 24.2 °F 28.4 °F 75% 29.89 in 10.0 mi WNW 21.9 mph 31.1 mph N/A   Overcast
12:53 PM 32.0 °F 17.6 °F 25.0 °F 75% 29.98 in 10.0 mi NNW 29.9 mph 36.8 mph N/A   Overcast
1:41 PM 23.0 °F 5.1 °F 17.6 °F 80% 29.97 in 10.0 mi NNW 31.1 mph 36.8 mph N/A   Mostly Cloudy
1:53 PM 21.9 °F 4.2 °F 17.1 °F 82% 30.04 in 10.0 mi NNW 28.8 mph 39.1 mph N/A   Mostly Cloudy
2:53 PM 19.0 °F 1.6 °F 14.0 °F 81% 30.09 in 3.0 mi NW 24.2 mph 29.9 mph 0.00 in Snow Light Snow
3:01 PM 19.4 °F 0.2 °F 14.0 °F 80% 30.03 in 1.5 mi NW 31.1 mph 38.0 mph 0.00 in Snow Light Snow
3:08 PM 17.6 °F -2.5 °F 12.2 °F 79% 30.04 in 1.0 mi NW 32.2 mph 40.3 mph 0.00 in Snow Light Snow
3:11 PM 17.6 °F -2.8 °F 10.4 °F 73% 30.04 in 2.0 mi NNW 33.4 mph 42.6 mph 0.00 in Snow Light Snow
3:18 PM 15.8 °F -4.1 °F 8.6 °F 73% 30.05 in 9.0 mi NW 28.8 mph 42.6 mph 0.00 in   Mostly Cloudy
3:47 PM 12.2 °F -9.3 °F 6.8 °F 79% 30.08 in 1.8 mi NNW 29.9 mph 42.6 mph 0.00 in Snow Light Snow
3:51 PM 12.2 °F -9.9 °F 8.6 °F 85% 30.08 in 0.8 mi NNW 32.2 mph 42.6 mph 0.00 in Snow Light Snow
3:53 PM 12.9 °F -8.3 °F 8.1 °F 81% 30.17 in 0.8 mi NNW 29.9 mph 42.6 mph 0.00 in Snow Light Snow
4:00 PM 12.2 °F -9.6 °F 6.8 °F 79% 30.09 in 1.5 mi NW 31.1 mph 44.9 mph 0.00 in Snow Light Snow
4:04 PM 12.2 °F -10.2 °F 5.0 °F 73% 30.10 in 3.0 mi NW 33.4 mph 44.9 mph 0.00 in Snow Light Snow
4:36 PM 10.4 °F -11.4 °F 5.0 °F 79% 30.13 in 1.5 mi NNW 28.8 mph 39.1 mph 0.00 in Snow Light Snow
4:43 PM 8.6 °F -15.1 °F 3.2 °F 79% 30.14 in 1.2 mi NNW 33.4 mph 41.4 mph 0.00 in Snow Light Snow
4:45 PM 8.6 °F -13.8 °F 3.2 °F 79% 30.14 in 2.0 mi NNW 28.8 mph 41.4 mph 0.00 in Snow Light Snow
4:51 PM 8.6 °F -14.1 °F 1.4 °F 73% 30.14 in 9.0 mi NNW 29.9 mph 41.4 mph 0.00 in   Mostly Cloudy
4:52 PM 9.0 °F -13.0 °F 1.0 °F 70% 30.24 in 9.0 mi NNW 27.6 mph 38.0 mph 0.00 in   Mostly Cloudy
5:53 PM 6.1 °F -14.8 °F -2.0 °F 69% 30.29 in 10.0 mi NNW 21.9 mph 35.7 mph N/A   Clear
6:53 PM 3.0 °F -19.3 °F -2.9 °F 76% 30.33 in 10.0 mi NW 23.0 mph 31.1 mph N/A   Clear
7:53 PM 1.9 °F -19.2 °F -4.0 °F 76% 30.35 in 10.0 mi NNW 19.6 mph - N/A   Clear
8:53 PM -0.0 °F -21.8 °F -6.0 °F 76% 30.35 in 10.0 mi NNW 19.6 mph - N/A   Clear
9:53 PM -0.0 °F -21.8 °F -6.0 °F 76% 30.37 in 10.0 mi NW 19.6 mph - N/A   Clear
11:53 PM -2.0 °F -21.2 °F -7.1 °F 79% 30.38 in 10.0 mi NNW 13.8 mph - N/A   Clear